Hourly Data Report for October 03, 2017

All times are specified in Local Standard Time (LST). Add 1 hour to adjust for Daylight Saving Time where and when it is observed.

SUMMERLAND CS
BRITISH COLUMBIA

49°33'45.200" N
119°38'55.300" W
454.20 m
112G8L1
71768
WUS

Download Data

Hourly Data (October 2017)
Hourly Data Report for October 3, 2017
Temp Definition
°C
Dew Point Temp Definition
°C
Rel Hum Definition
%
Wind Dir Definition
10's deg

Wind Spd Definition
km/h
Visibility Definition
km
Stn Press Definition
kPa
Hmdx Definition


Wind Chill Definition


Weather Definition


TIME
00:00 6.7 -2.2 53 28 12   97.28     LegendNANA
01:00 6.3 -2.4 54 28 13   97.34     LegendNANA
02:00 6.2 -2.6 53 28 9   97.37     LegendNANA
03:00 4.7 -3.3 56 28 9   97.40     LegendNANA
04:00 5.2 -3.0 55 29 13   97.41     LegendNANA
05:00 4.4 -3.1 58 29 11   97.43     LegendNANA
06:00 3.5 -3.3 61 29 12   97.43     LegendNANA
07:00 4.5 -3.4 56 29 11   97.49     LegendNANA
08:00 8.6 -0.8 52 34 3   97.54     LegendNANA
09:00 10.2 1.8 56 10 5   97.55     LegendNANA
10:00 11.3 1.9 52 5 7   97.50     LegendNANA
11:00 11.7 1.7 51 5 10   97.44     LegendNANA
12:00 14.1 -2.2 32 4 6   97.35     LegendNANA
13:00 16.2 -2.4 28 4 4   97.25     LegendNANA
14:00 16.4 -3.7 25 1 8   97.17     LegendNANA
15:00 16.7 -4.4 23 1 5   97.11     LegendNANA
16:00 14.8 -1.5 33 3 6   97.08     LegendNANA
17:00 13.9 -3.5 30 34 6   97.09     LegendNANA
18:00 12.6 -3.8 32 28 6   97.09     LegendNANA
19:00 11.2 -3.5 35 29 9   97.15     LegendNANA
20:00 10.4 -3.2 38 29 8   97.16     LegendNANA
21:00 8.2 -2.9 45 29 6   97.20     LegendNANA
22:00 7.9 -2.7 47 28 8   97.20     LegendNANA
23:00 6.0 -3.4 51 29 12   97.22     LegendNANA

Notes on Data Quality.

Legend

  • E = Estimated
  • M = Missing
  • NA = Not Available
  • ‡ = Partner data that is not subject to review by the National Climate Archives
Date modified: